OCN1291 LGKL-EDDM

Flight info

Callsign OCN1291
Flight time 2h 7m
Altitude 38000
Route IPTAG UY115 TRL UN1 ARA UL611 GARTA DCT VJOSA DCT OVVER DCT PETAK DCT GLOMY DCT ELTIB DCT TUPUS DCT GORPA DCT RASTA DCT REDBU Q112 NAPSA NAPSA1B
Aircraft A320/M-SDE3FGHIRWY/LB1

Departure

Time 2026-05-07 15:39
Airport Kalamata Airport (LGKL)

Arrival

Time 2026-05-07 17:47
Airport Munich Airport (EDDM)
Time Latitude Longitude Altitude Speed Heading
2026-05-07 14:42 37.05454 22.03267 29 ft 0 kts 146°
2026-05-07 15:32 37.05454 22.03299 29 ft 5 kts 30°
2026-05-07 15:33 37.05471 22.03278 29 ft 3 kts 301°
2026-05-07 15:33 37.05480 22.03247 29 ft 7 kts 285°
2026-05-07 15:33 37.05500 22.03190 29 ft 7 kts 286°
2026-05-07 15:33 37.05512 22.03135 29 ft 6 kts 288°
2026-05-07 15:34 37.05533 22.03062 29 ft 10 kts 288°
2026-05-07 15:34 37.05556 22.02984 28 ft 9 kts 307°
2026-05-07 15:34 37.05636 22.02942 29 ft 15 kts 350°
2026-05-07 15:34 37.05730 22.02920 30 ft 10 kts 350°
2026-05-07 15:35 37.05743 22.02917 30 ft 0 kts 350°
2026-05-07 15:38 37.05748 22.02916 30 ft 5 kts 342°
2026-05-07 15:38 37.05757 22.02847 28 ft 7 kts 269°
2026-05-07 15:38 37.05779 22.02788 31 ft 9 kts 330°
2026-05-07 15:38 37.05871 22.02761 27 ft 23 kts 349°
2026-05-07 15:39 37.06326 22.02656 28 ft 108 kts 349°
2026-05-07 15:39 37.07287 22.02434 119 ft 164 kts 350°
2026-05-07 15:39 37.08464 22.02172 807 ft 179 kts 350°
2026-05-07 15:39 37.09695 22.01778 1611 ft 184 kts 342°
2026-05-07 15:40 37.10917 22.01254 2304 ft 187 kts 341°
2026-05-07 15:40 37.12166 22.00749 2913 ft 194 kts 345°
2026-05-07 15:40 37.13542 22.00270 3233 ft 216 kts 345°
2026-05-07 15:40 37.15067 21.99762 3609 ft 235 kts 346°
2026-05-07 15:41 37.16735 21.99205 3989 ft 261 kts 345°
2026-05-07 15:41 37.18546 21.98541 4625 ft 278 kts 339°
2026-05-07 15:41 37.20349 21.97583 5546 ft 284 kts 336°
2026-05-07 15:41 37.22169 21.96563 6482 ft 288 kts 334°
2026-05-07 15:42 37.24004 21.95517 7388 ft 291 kts 334°
2026-05-07 15:42 37.25853 21.94460 8325 ft 292 kts 333°
2026-05-07 15:42 37.27711 21.93400 9277 ft 294 kts 332°
2026-05-07 15:42 37.29576 21.92341 10199 ft 295 kts 332°
2026-05-07 15:43 37.31499 21.91247 10635 ft 315 kts 332°
2026-05-07 15:43 37.33571 21.90064 10897 ft 339 kts 332°
2026-05-07 15:43 37.35788 21.88800 11157 ft 360 kts 332°
2026-05-07 15:43 37.38103 21.87488 11791 ft 367 kts 332°
2026-05-07 15:44 37.40445 21.86167 12528 ft 370 kts 331°
2026-05-07 15:44 37.42802 21.84842 13304 ft 372 kts 331°
2026-05-07 15:44 37.45206 21.83486 14097 ft 375 kts 330°
2026-05-07 15:44 37.47592 21.82133 14784 ft 377 kts 331°
2026-05-07 15:45 37.49965 21.80784 15441 ft 380 kts 331°
2026-05-07 15:45 37.52412 21.79390 16107 ft 382 kts 331°
2026-05-07 15:45 37.54845 21.78004 16752 ft 385 kts 331°
2026-05-07 15:45 37.57296 21.76609 17392 ft 388 kts 332°
2026-05-07 15:46 37.62254 21.73791 18592 ft 394 kts 332°
2026-05-07 15:46 37.64757 21.72365 19136 ft 396 kts 332°
2026-05-07 15:46 37.67272 21.70929 19687 ft 398 kts 332°
2026-05-07 15:47 37.69801 21.69482 20231 ft 399 kts 332°
2026-05-07 15:47 37.72335 21.68030 20761 ft 401 kts 332°
2026-05-07 15:47 37.74888 21.66567 21282 ft 404 kts 332°
2026-05-07 15:47 37.77453 21.65099 21797 ft 406 kts 332°
2026-05-07 15:48 37.80033 21.63624 22303 ft 408 kts 332°
2026-05-07 15:48 37.82624 21.62137 22808 ft 410 kts 332°
2026-05-07 15:48 37.85231 21.60639 23290 ft 412 kts 332°
2026-05-07 15:48 37.87850 21.59134 23740 ft 414 kts 332°
2026-05-07 15:49 37.90478 21.57623 24163 ft 416 kts 332°
2026-05-07 15:49 37.93116 21.56104 24591 ft 416 kts 331°
2026-05-07 15:49 37.95752 21.54586 25028 ft 417 kts 331°
2026-05-07 15:49 37.98394 21.53064 25468 ft 417 kts 331°
2026-05-07 15:50 38.01035 21.51542 25875 ft 418 kts 330°
2026-05-07 15:50 38.03682 21.50011 26280 ft 418 kts 330°
2026-05-07 15:50 38.06330 21.48478 26683 ft 419 kts 330°
2026-05-07 15:50 38.08987 21.46941 27072 ft 420 kts 330°
2026-05-07 15:51 38.11645 21.45401 27449 ft 420 kts 330°
2026-05-07 15:51 38.14310 21.43856 27818 ft 421 kts 329°
2026-05-07 15:51 38.17017 21.42292 28186 ft 422 kts 330°
2026-05-07 15:51 38.19705 21.40779 28550 ft 424 kts 330°
2026-05-07 15:52 38.22377 21.39310 28945 ft 423 kts 330°
2026-05-07 15:52 38.25109 21.37825 29460 ft 420 kts 330°
2026-05-07 15:52 38.26890 21.36858 29820 ft 418 kts 330°
2026-05-07 15:52 38.29549 21.35409 30303 ft 415 kts 329°
2026-05-07 15:53 38.32195 21.33955 30729 ft 412 kts 329°
2026-05-07 15:53 38.34818 21.32501 31147 ft 410 kts 329°
2026-05-07 15:53 38.37420 21.31050 31556 ft 407 kts 329°
2026-05-07 15:53 38.40012 21.29604 31975 ft 405 kts 329°
2026-05-07 15:54 38.42618 21.28151 32397 ft 402 kts 328°
2026-05-07 15:54 38.45178 21.26726 32817 ft 400 kts 328°
2026-05-07 15:54 38.47720 21.25313 33243 ft 398 kts 328°
2026-05-07 15:54 38.50250 21.23908 33679 ft 395 kts 328°
2026-05-07 15:55 38.52797 21.22495 34137 ft 392 kts 328°
2026-05-07 15:55 38.55286 21.21113 34527 ft 389 kts 328°
2026-05-07 15:55 38.57759 21.19735 34936 ft 385 kts 327°
2026-05-07 15:55 38.60268 21.18334 35340 ft 382 kts 327°
2026-05-07 15:56 38.62689 21.16975 35698 ft 379 kts 327°
2026-05-07 15:56 38.65094 21.15620 36039 ft 377 kts 327°
2026-05-07 15:56 38.67490 21.14272 36369 ft 374 kts 327°
2026-05-07 15:56 38.69998 21.12862 36724 ft 372 kts 327°
2026-05-07 15:57 38.72364 21.11534 37049 ft 369 kts 327°
2026-05-07 15:57 38.74711 21.10219 37326 ft 368 kts 327°
2026-05-07 15:57 38.77051 21.08902 37601 ft 366 kts 327°
2026-05-07 15:57 38.79383 21.07587 37827 ft 365 kts 327°
2026-05-07 15:58 38.81706 21.06273 38047 ft 364 kts 327°
2026-05-07 15:58 38.86343 21.03648 38098 ft 364 kts 327°
2026-05-07 15:59 38.90979 21.01031 38100 ft 364 kts 327°
2026-05-07 15:59 38.95614 20.98410 38103 ft 364 kts 326°
2026-05-07 16:00 39.00239 20.95789 38103 ft 363 kts 326°
2026-05-07 16:00 39.04864 20.93162 38102 ft 363 kts 326°
2026-05-07 16:01 39.09495 20.90540 38098 ft 363 kts 326°
2026-05-07 16:01 39.14125 20.87909 38102 ft 364 kts 326°
2026-05-07 16:02 39.18759 20.85263 38090 ft 364 kts 326°
2026-05-07 16:02 39.23404 20.82607 38094 ft 366 kts 326°
2026-05-07 16:03 39.28061 20.79948 38095 ft 366 kts 326°
2026-05-07 16:03 39.32724 20.77290 38102 ft 366 kts 326°
2026-05-07 16:04 39.37388 20.74616 38084 ft 367 kts 326°
2026-05-07 16:04 39.42063 20.71925 38093 ft 368 kts 326°
2026-05-07 16:05 39.46751 20.69227 38101 ft 369 kts 326°
2026-05-07 16:05 39.51477 20.66507 38103 ft 369 kts 326°
2026-05-07 16:06 39.56172 20.63803 38104 ft 369 kts 326°
2026-05-07 16:06 39.60871 20.61097 38109 ft 370 kts 326°
2026-05-07 16:07 39.65556 20.58391 38096 ft 371 kts 326°
2026-05-07 16:07 39.70278 20.55656 38092 ft 372 kts 326°
2026-05-07 16:08 39.75063 20.52878 38092 ft 373 kts 326°
2026-05-07 16:08 39.79777 20.50141 38087 ft 373 kts 326°
2026-05-07 16:09 39.84531 20.47384 38082 ft 374 kts 326°
2026-05-07 16:09 39.89288 20.44606 38088 ft 375 kts 326°
2026-05-07 16:10 39.94053 20.41820 38083 ft 376 kts 326°
2026-05-07 16:10 39.98830 20.39033 38071 ft 376 kts 327°
2026-05-07 16:11 40.03617 20.36227 38088 ft 378 kts 326°
2026-05-07 16:11 40.08409 20.33416 38085 ft 377 kts 326°
2026-05-07 16:12 40.13173 20.30627 38073 ft 375 kts 326°
2026-05-07 16:12 40.17968 20.27801 38093 ft 379 kts 326°
2026-05-07 16:13 40.22783 20.24959 38097 ft 380 kts 327°
2026-05-07 16:13 40.27611 20.22115 38094 ft 380 kts 326°
2026-05-07 16:14 40.32475 20.19247 38088 ft 381 kts 327°
2026-05-07 16:14 40.36506 20.16876 38085 ft 382 kts 327°
2026-05-07 16:15 40.41355 20.14002 38076 ft 383 kts 327°
2026-05-07 16:15 40.46216 20.11120 38069 ft 384 kts 327°
2026-05-07 16:16 40.51094 20.08224 38064 ft 385 kts 327°
2026-05-07 16:16 40.56019 20.05281 38061 ft 387 kts 327°
2026-05-07 16:17 40.60931 20.02348 38056 ft 388 kts 327°
2026-05-07 16:17 40.65876 19.99403 38057 ft 390 kts 327°
2026-05-07 16:18 40.70828 19.96441 38048 ft 391 kts 327°
2026-05-07 16:18 40.75793 19.93459 38049 ft 393 kts 327°
2026-05-07 16:19 40.80553 19.90046 38037 ft 389 kts 322°
2026-05-07 16:19 40.85247 19.86393 38038 ft 390 kts 322°
2026-05-07 16:20 40.89920 19.82725 38039 ft 391 kts 322°
2026-05-07 16:20 40.94629 19.79061 38034 ft 394 kts 322°
2026-05-07 16:21 40.99364 19.75395 38040 ft 395 kts 322°
2026-05-07 16:21 41.04123 19.71702 38038 ft 397 kts 322°
2026-05-07 16:22 41.08930 19.67964 38040 ft 399 kts 322°
2026-05-07 16:22 41.13730 19.64218 38040 ft 401 kts 322°
2026-05-07 16:23 41.18545 19.60449 38042 ft 402 kts 322°
2026-05-07 16:23 41.23374 19.56661 38052 ft 404 kts 323°
2026-05-07 16:24 41.28220 19.52864 38050 ft 405 kts 323°
2026-05-07 16:24 41.33116 19.49027 38051 ft 406 kts 323°
2026-05-07 16:25 41.37987 19.45193 38054 ft 407 kts 323°
2026-05-07 16:25 41.42839 19.41372 38057 ft 408 kts 323°
2026-05-07 16:26 41.47730 19.37509 38065 ft 409 kts 323°
2026-05-07 16:26 41.52626 19.33634 38061 ft 410 kts 323°
2026-05-07 16:27 41.57569 19.29725 38063 ft 410 kts 323°
2026-05-07 16:27 41.62517 19.25797 38059 ft 411 kts 323°
2026-05-07 16:28 41.67436 19.21887 38057 ft 412 kts 323°
2026-05-07 16:28 41.72366 19.17965 38061 ft 413 kts 323°
2026-05-07 16:29 41.77307 19.14022 38063 ft 414 kts 323°
2026-05-07 16:29 41.82254 19.10065 38073 ft 415 kts 323°
2026-05-07 16:30 41.87209 19.06080 38069 ft 416 kts 323°
2026-05-07 16:30 41.92177 19.02090 38074 ft 417 kts 323°
2026-05-07 16:31 41.97165 18.98085 38077 ft 418 kts 323°
2026-05-07 16:31 42.02186 18.94045 38078 ft 419 kts 323°
2026-05-07 16:32 42.07190 18.90010 38078 ft 419 kts 323°
2026-05-07 16:32 42.12199 18.85960 38077 ft 420 kts 323°
2026-05-07 16:33 42.17219 18.81896 38081 ft 421 kts 323°
2026-05-07 16:33 42.22244 18.77814 38078 ft 422 kts 323°
2026-05-07 16:34 42.27272 18.73728 38083 ft 422 kts 323°
2026-05-07 16:34 42.32304 18.69626 38090 ft 422 kts 323°
2026-05-07 16:35 42.37342 18.65520 38094 ft 423 kts 323°
2026-05-07 16:35 42.42322 18.61449 38093 ft 423 kts 323°
2026-05-07 16:36 42.47366 18.57305 38092 ft 423 kts 322°
2026-05-07 16:36 42.52281 18.52947 38094 ft 422 kts 320°
2026-05-07 16:37 42.57092 18.48403 38094 ft 422 kts 319°
2026-05-07 16:37 42.61915 18.43850 38093 ft 422 kts 320°
2026-05-07 16:38 42.66797 18.39299 38096 ft 423 kts 320°
2026-05-07 16:38 42.71654 18.34789 38096 ft 423 kts 320°
2026-05-07 16:39 42.75728 18.31002 38098 ft 423 kts 320°
2026-05-07 16:39 42.80589 18.26471 38093 ft 423 kts 320°
2026-05-07 16:40 42.85443 18.21920 38096 ft 424 kts 320°
2026-05-07 16:40 42.90301 18.17357 38093 ft 424 kts 320°
2026-05-07 16:41 42.95164 18.12788 38096 ft 425 kts 320°
2026-05-07 16:41 43.00063 18.08183 38094 ft 425 kts 320°
2026-05-07 16:42 43.04926 18.03594 38096 ft 425 kts 320°
2026-05-07 16:42 43.09789 17.98997 38097 ft 425 kts 320°
2026-05-07 16:43 43.14690 17.94357 38098 ft 425 kts 320°
2026-05-07 16:43 43.19556 17.89741 38098 ft 426 kts 320°
2026-05-07 16:44 43.24428 17.85113 38096 ft 426 kts 320°
2026-05-07 16:44 43.29309 17.80480 38105 ft 426 kts 320°
2026-05-07 16:45 43.34186 17.75826 38103 ft 427 kts 320°
2026-05-07 16:45 43.39051 17.71148 38105 ft 427 kts 319°
2026-05-07 16:46 43.43919 17.66485 38092 ft 426 kts 319°
2026-05-07 16:46 43.48792 17.61811 38091 ft 426 kts 319°
2026-05-07 16:47 43.53688 17.57104 38088 ft 426 kts 319°
2026-05-07 16:47 43.58549 17.52414 38097 ft 426 kts 319°
2026-05-07 16:48 43.63408 17.47704 38098 ft 426 kts 319°
2026-05-07 16:48 43.68261 17.42999 38101 ft 426 kts 319°
2026-05-07 16:49 43.73118 17.38290 38101 ft 427 kts 319°
2026-05-07 16:49 43.78011 17.33535 38102 ft 427 kts 319°
2026-05-07 16:50 43.82875 17.28802 38097 ft 427 kts 319°
2026-05-07 16:50 43.87764 17.24026 38099 ft 427 kts 319°
2026-05-07 16:51 43.92623 17.19273 38098 ft 428 kts 319°
2026-05-07 16:51 43.97492 17.14512 38095 ft 428 kts 319°
2026-05-07 16:52 44.02399 17.09704 38082 ft 429 kts 319°
2026-05-07 16:52 44.07268 17.04902 38080 ft 430 kts 318°
2026-05-07 16:53 44.12150 17.00091 38075 ft 431 kts 319°
2026-05-07 16:53 44.17043 16.95269 38063 ft 432 kts 319°
2026-05-07 16:54 44.21947 16.90418 38062 ft 432 kts 318°
2026-05-07 16:54 44.26857 16.85536 38058 ft 432 kts 318°
2026-05-07 16:55 44.31749 16.80663 38042 ft 433 kts 318°
2026-05-07 16:55 44.36730 16.75700 38047 ft 434 kts 319°
2026-05-07 16:56 44.41680 16.70753 38040 ft 435 kts 319°
2026-05-07 16:56 44.49123 16.63312 38042 ft 436 kts 319°
2026-05-07 16:57 44.54057 16.58356 38047 ft 436 kts 319°
2026-05-07 16:57 44.59025 16.53357 38049 ft 436 kts 319°
2026-05-07 16:58 44.63159 16.49192 38042 ft 436 kts 319°
2026-05-07 16:58 44.68121 16.44180 38040 ft 437 kts 319°
2026-05-07 16:59 44.73056 16.39187 38036 ft 437 kts 319°
2026-05-07 16:59 44.78029 16.34147 38041 ft 438 kts 319°
2026-05-07 17:00 44.83010 16.29086 38058 ft 438 kts 317°
2026-05-07 17:00 44.87941 16.24053 38032 ft 438 kts 319°
2026-05-07 17:01 44.92891 16.18995 38040 ft 439 kts 319°
2026-05-07 17:01 44.97840 16.13933 38034 ft 440 kts 319°
2026-05-07 17:02 45.02833 16.08821 38032 ft 440 kts 319°
2026-05-07 17:02 45.07758 16.03763 38024 ft 441 kts 319°
2026-05-07 17:03 45.12748 15.98626 38022 ft 441 kts 319°
2026-05-07 17:03 45.17711 15.93510 38020 ft 441 kts 319°
2026-05-07 17:04 45.22669 15.88385 38023 ft 442 kts 319°
2026-05-07 17:04 45.27764 15.83374 38016 ft 443 kts 321°
2026-05-07 17:05 45.32891 15.78528 38020 ft 443 kts 321°
2026-05-07 17:05 45.38069 15.73600 38014 ft 443 kts 321°
2026-05-07 17:06 45.43164 15.68674 38009 ft 443 kts 321°
2026-05-07 17:06 45.48296 15.63674 38007 ft 443 kts 321°
2026-05-07 17:07 45.53423 15.58683 38006 ft 443 kts 321°
2026-05-07 17:07 45.58523 15.53724 38004 ft 444 kts 321°
2026-05-07 17:08 45.63669 15.48706 37992 ft 444 kts 321°
2026-05-07 17:08 45.68746 15.43727 37994 ft 444 kts 321°
2026-05-07 17:09 45.73839 15.38733 37994 ft 444 kts 321°
2026-05-07 17:09 45.78945 15.33658 37994 ft 443 kts 319°
2026-05-07 17:10 45.83855 15.28320 37996 ft 442 kts 317°
2026-05-07 17:10 45.88717 15.22812 37995 ft 442 kts 317°
2026-05-07 17:11 45.93561 15.17375 37992 ft 442 kts 317°
2026-05-07 17:11 45.98513 15.11906 37984 ft 443 kts 317°
2026-05-07 17:12 46.03373 15.06519 37984 ft 443 kts 317°
2026-05-07 17:12 46.08269 15.01043 37980 ft 443 kts 317°
2026-05-07 17:13 46.12340 14.96482 37975 ft 443 kts 317°
2026-05-07 17:13 46.17205 14.91019 37980 ft 443 kts 317°
2026-05-07 17:14 46.22104 14.85521 37989 ft 443 kts 317°
2026-05-07 17:14 46.27039 14.79978 37990 ft 443 kts 317°
2026-05-07 17:15 46.31863 14.74528 37974 ft 443 kts 316°
2026-05-07 17:15 46.36751 14.68987 37972 ft 444 kts 316°
2026-05-07 17:16 46.41588 14.63503 37973 ft 444 kts 316°
2026-05-07 17:16 46.46459 14.57969 37973 ft 444 kts 316°
2026-05-07 17:17 46.51353 14.52391 37988 ft 444 kts 316°
2026-05-07 17:17 46.56206 14.46840 37995 ft 444 kts 316°
2026-05-07 17:18 46.61071 14.41274 37996 ft 445 kts 316°
2026-05-07 17:18 46.65937 14.35690 37992 ft 446 kts 316°
2026-05-07 17:19 46.70811 14.30087 37992 ft 446 kts 316°
2026-05-07 17:19 46.75677 14.24475 37989 ft 447 kts 316°
2026-05-07 17:20 46.80553 14.18845 37991 ft 447 kts 316°
2026-05-07 17:20 46.85433 14.13194 37648 ft 450 kts 316°
2026-05-07 17:21 46.87877 14.10358 37078 ft 448 kts 316°
2026-05-07 17:21 46.90317 14.07521 36541 ft 446 kts 316°
2026-05-07 17:21 46.92737 14.04703 36013 ft 445 kts 316°
2026-05-07 17:21 46.95160 14.01881 35494 ft 445 kts 316°
2026-05-07 17:22 46.97576 13.99060 34983 ft 445 kts 315°
2026-05-07 17:22 46.99997 13.96238 34496 ft 444 kts 315°
2026-05-07 17:22 47.02415 13.93417 33996 ft 443 kts 315°
2026-05-07 17:22 47.04825 13.90604 33439 ft 444 kts 315°
2026-05-07 17:23 47.07237 13.87770 32893 ft 445 kts 315°
2026-05-07 17:23 47.09656 13.84920 32376 ft 446 kts 315°
2026-05-07 17:23 47.12089 13.82057 31869 ft 448 kts 316°
2026-05-07 17:23 47.14526 13.79192 31364 ft 450 kts 316°
2026-05-07 17:24 47.16978 13.76312 30869 ft 452 kts 316°
2026-05-07 17:24 47.19441 13.73417 30390 ft 454 kts 316°
2026-05-07 17:24 47.21911 13.70510 29850 ft 455 kts 316°
2026-05-07 17:24 47.24391 13.67582 29239 ft 458 kts 316°
2026-05-07 17:25 47.26883 13.64631 28664 ft 459 kts 316°
2026-05-07 17:25 47.29359 13.61690 28097 ft 461 kts 316°
2026-05-07 17:25 47.31862 13.58709 27547 ft 462 kts 316°
2026-05-07 17:25 47.34369 13.55725 26989 ft 464 kts 316°
2026-05-07 17:26 47.36887 13.52728 26458 ft 465 kts 317°
2026-05-07 17:26 47.39408 13.49726 25926 ft 466 kts 317°
2026-05-07 17:26 47.41961 13.46689 25410 ft 463 kts 317°
2026-05-07 17:26 47.44421 13.43761 24904 ft 459 kts 317°
2026-05-07 17:27 47.46868 13.40843 24414 ft 456 kts 317°
2026-05-07 17:27 47.49197 13.38059 23951 ft 450 kts 317°
2026-05-07 17:27 47.51867 13.34871 23461 ft 437 kts 317°
2026-05-07 17:27 47.53938 13.32397 23008 ft 426 kts 317°
2026-05-07 17:28 47.56210 13.29680 22517 ft 415 kts 317°
2026-05-07 17:28 47.58471 13.26966 22036 ft 408 kts 317°
2026-05-07 17:28 47.60608 13.24387 21594 ft 399 kts 317°
2026-05-07 17:28 47.62740 13.21807 21154 ft 391 kts 316°
2026-05-07 17:29 47.64859 13.19239 20716 ft 384 kts 316°
2026-05-07 17:29 47.66919 13.16751 20291 ft 378 kts 317°
2026-05-07 17:29 47.68971 13.14276 19861 ft 373 kts 316°
2026-05-07 17:29 47.70946 13.11888 19453 ft 369 kts 316°
2026-05-07 17:30 47.72963 13.09444 19037 ft 365 kts 316°
2026-05-07 17:30 47.74907 13.07087 18638 ft 363 kts 316°
2026-05-07 17:30 47.76877 13.04695 18225 ft 360 kts 316°
2026-05-07 17:30 47.78788 13.02372 17768 ft 358 kts 316°
2026-05-07 17:31 47.80736 12.99998 17345 ft 356 kts 316°
2026-05-07 17:31 47.82641 12.97673 16878 ft 353 kts 316°
2026-05-07 17:31 47.84533 12.95364 16452 ft 351 kts 316°
2026-05-07 17:31 47.86422 12.93060 16020 ft 349 kts 316°
2026-05-07 17:32 47.88286 12.90785 15596 ft 347 kts 316°
2026-05-07 17:32 47.90157 12.88499 15168 ft 345 kts 316°
2026-05-07 17:32 47.91997 12.86251 14849 ft 342 kts 316°
2026-05-07 17:32 47.93241 12.84719 14686 ft 341 kts 315°
2026-05-07 17:33 47.95457 12.81380 14355 ft 336 kts 306°
2026-05-07 17:33 47.96407 12.79565 14167 ft 331 kts 303°
2026-05-07 17:33 47.97645 12.76681 14032 ft 327 kts 298°
2026-05-07 17:33 47.99063 12.74000 14014 ft 331 kts 316°
2026-05-07 17:34 48.00975 12.71976 13675 ft 332 kts 324°
2026-05-07 17:34 48.02984 12.70072 13250 ft 330 kts 324°
2026-05-07 17:34 48.04806 12.68354 12883 ft 328 kts 324°
2026-05-07 17:34 48.06826 12.66453 12468 ft 326 kts 324°
2026-05-07 17:35 48.08694 12.64694 12088 ft 324 kts 324°
2026-05-07 17:35 48.10589 12.62909 11705 ft 320 kts 324°
2026-05-07 17:35 48.12430 12.61175 11435 ft 312 kts 324°
2026-05-07 17:35 48.14267 12.59449 11180 ft 305 kts 324°
2026-05-07 17:36 48.16044 12.57787 10936 ft 298 kts 324°
2026-05-07 17:36 48.17784 12.56165 10685 ft 291 kts 324°
2026-05-07 17:36 48.19494 12.54572 10433 ft 286 kts 324°
2026-05-07 17:36 48.21167 12.53014 10145 ft 282 kts 324°
2026-05-07 17:37 48.22825 12.51471 9846 ft 279 kts 324°
2026-05-07 17:37 48.24473 12.49934 9523 ft 278 kts 324°
2026-05-07 17:37 48.26115 12.48397 9207 ft 276 kts 324°
2026-05-07 17:37 48.27755 12.46858 8886 ft 275 kts 324°
2026-05-07 17:38 48.29356 12.45353 8620 ft 274 kts 324°
2026-05-07 17:38 48.30735 12.43455 8360 ft 267 kts 301°
2026-05-07 17:38 48.31646 12.41041 8107 ft 265 kts 295°
2026-05-07 17:38 48.32481 12.38563 7846 ft 258 kts 295°
2026-05-07 17:39 48.33270 12.36190 7593 ft 252 kts 295°
2026-05-07 17:39 48.34050 12.33831 7342 ft 246 kts 295°
2026-05-07 17:39 48.34807 12.31544 7092 ft 241 kts 295°
2026-05-07 17:39 48.35556 12.29282 6839 ft 236 kts 295°
2026-05-07 17:40 48.36275 12.27099 6592 ft 231 kts 295°
2026-05-07 17:40 48.36982 12.24946 6358 ft 227 kts 295°
2026-05-07 17:40 48.37526 12.22639 6082 ft 221 kts 276°
2026-05-07 17:40 48.37465 12.20462 5836 ft 218 kts 264°
2026-05-07 17:41 48.37295 12.18189 5601 ft 214 kts 264°
2026-05-07 17:41 48.37133 12.16001 5474 ft 207 kts 264°
2026-05-07 17:41 48.36978 12.13886 5346 ft 200 kts 264°
2026-05-07 17:41 48.36828 12.11842 5240 ft 191 kts 264°
2026-05-07 17:42 48.36687 12.09927 5125 ft 178 kts 265°
2026-05-07 17:42 48.36553 12.08105 5061 ft 174 kts 264°
2026-05-07 17:42 48.36419 12.06293 4898 ft 174 kts 264°
2026-05-07 17:42 48.36283 12.04464 4684 ft 173 kts 265°
2026-05-07 17:43 48.36148 12.02641 4442 ft 173 kts 265°
2026-05-07 17:43 48.36018 12.00898 4228 ft 172 kts 265°
2026-05-07 17:43 48.35883 11.99088 3988 ft 173 kts 265°
2026-05-07 17:43 48.35750 11.97306 3760 ft 170 kts 265°
2026-05-07 17:44 48.35620 11.95572 3545 ft 161 kts 265°
2026-05-07 17:44 48.35500 11.93982 3337 ft 147 kts 265°
2026-05-07 17:44 48.35389 11.92503 3141 ft 139 kts 266°
2026-05-07 17:44 48.35281 11.91069 2955 ft 137 kts 266°
2026-05-07 17:45 48.35174 11.89648 2778 ft 137 kts 266°
2026-05-07 17:45 48.35068 11.88230 2589 ft 136 kts 266°
2026-05-07 17:45 48.34956 11.86779 2355 ft 137 kts 266°
2026-05-07 17:45 48.34857 11.85601 2175 ft 138 kts 265°
2026-05-07 17:46 48.34725 11.83837 1935 ft 139 kts 269°
2026-05-07 17:46 48.34625 11.82395 1774 ft 138 kts 266°
2026-05-07 17:46 48.34550 11.81441 1646 ft 138 kts 266°
2026-05-07 17:46 48.34411 11.79573 1480 ft 128 kts 267°
2026-05-07 17:47 48.34334 11.78561 1473 ft 53 kts 262°
2026-05-07 17:47 48.34305 11.78179 1479 ft 32 kts 264°
2026-05-07 17:47 48.34355 11.77842 1480 ft 26 kts 293°
2026-05-07 17:47 48.34426 11.77607 1477 ft 24 kts 296°
2026-05-07 17:48 48.34464 11.77488 1483 ft 8 kts 304°
2026-05-07 17:48 48.34483 11.77464 1480 ft 0 kts 322°
2026-05-07 17:49 48.34493 11.77454 1478 ft 6 kts 329°
2026-05-07 17:49 48.34572 11.77429 1480 ft 14 kts 354°
2026-05-07 17:49 48.34637 11.77533 1484 ft 19 kts 81°
2026-05-07 17:50 48.34653 11.77753 1475 ft 22 kts 83°
2026-05-07 17:50 48.34672 11.77996 1485 ft 24 kts 83°
2026-05-07 17:50 48.34693 11.78260 1485 ft 26 kts 83°
2026-05-07 17:50 48.34714 11.78542 1482 ft 28 kts 83°
2026-05-07 17:51 48.34735 11.78822 1481 ft 21 kts 83°
2026-05-07 17:51 48.34754 11.79056 1475 ft 24 kts 83°
2026-05-07 17:51 48.34773 11.79312 1477 ft 26 kts 83°
2026-05-07 17:51 48.34790 11.79512 1483 ft 15 kts 76°
2026-05-07 17:52 48.34844 11.79557 1482 ft 14 kts 354°
2026-05-07 17:52 48.34952 11.79541 1485 ft 17 kts 354°
2026-05-07 17:52 48.35076 11.79519 1485 ft 19 kts 353°
2026-05-07 17:52 48.35201 11.79498 1475 ft 17 kts 354°
2026-05-07 17:53 48.35324 11.79477 1479 ft 19 kts 353°
2026-05-07 17:53 48.35434 11.79508 1477 ft 16 kts 38°
2026-05-07 17:53 48.35509 11.79577 1476 ft 11 kts
2026-05-07 17:53 48.35600 11.79563 1481 ft 15 kts 353°
2026-05-07 17:54 48.35712 11.79543 1485 ft 17 kts 353°
2026-05-07 17:54 48.35825 11.79521 1485 ft 15 kts 342°
2026-05-07 17:54 48.35845 11.79398 1485 ft 13 kts 279°
2026-05-07 17:54 48.35853 11.79299 1482 ft 6 kts 264°
2026-05-07 17:55 48.35849 11.79240 1482 ft 5 kts 263°
2026-05-07 17:55 48.35849 11.79234 1481 ft 0 kts 263°
2026-05-07 17:55 48.35849 11.79235 1481 ft 0 kts 263°